Location: Newark
(60.6561°N, 46.5772°E)
Time: 08:20:26
(UTC+00:00)

Vanguard 2 Rocket - Visible Passes

Search period start: 23 October 2019 00:00
Search period end: 02 November 2019 00:00
Orbit: 553 x 3327 km, 32.9° (Epoch: 22 October)

Date Brightness Start Highest point End Pass type
(mag) Time Alt. Az. Time Alt. Az. Time Alt. Az.
28 Oct 11.0 02:39:42 10° SSE 02:44:54 12° SE 02:50:39 10° ESE visible
30 Oct 10.8 02:49:59 10° S 02:57:07 15° SE 03:05:30 10° ESE visible
31 Oct 10.8 01:56:01 10° SE 01:57:42 10° SE 01:59:26 10° SE visible
01 Nov 10.6 03:01:40 10° S 03:09:30 17° SSE 03:19:09 10° ESE visible
